TimeIST,TemperatureF,Dew PointF,Humidity,Sea Level PressureIn,VisibilityMPH,Wind Direction,Wind SpeedMPH,Gust SpeedMPH,PrecipitationIn,Events,Conditions,WindDirDegrees,DateUTC
12:20 AM,55.4,44.6,67,30.01,-9999.0,Variable,1.2,-,N/A,,Clear,0,2013-03-10 22:20:00
12:50 AM,55.4,44.6,67,30.01,-9999.0,Variable,1.2,-,N/A,,Clear,0,2013-03-10 22:50:00
1:20 AM,53.6,44.6,72,30.01,-9999.0,Variable,3.5,-,N/A,,Clear,0,2013-03-10 23:20:00
1:50 AM,55.4,44.6,67,30.01,-9999.0,SE,4.6,-,N/A,,Clear,130,2013-03-10 23:50:00
2:00 AM,55,44,58,30.01,6,ESE,4.6,,,,,120,2013-03-11 00:00:00
2:20 AM,55.4,44.6,67,29.98,-9999.0,Variable,3.5,-,N/A,,Clear,0,2013-03-11 00:20:00
2:50 AM,55.4,44.6,67,30.01,-9999.0,Variable,2.3,-,N/A,,Clear,0,2013-03-11 00:50:00
3:20 AM,53.6,44.6,72,30.01,-9999.0,Variable,2.3,-,N/A,,Clear,0,2013-03-11 01:20:00
3:50 AM,53.6,44.6,72,30.01,-9999.0,Variable,3.5,-,N/A,,Clear,0,2013-03-11 01:50:00
4:20 AM,53.6,44.6,72,30.01,-9999.0,ESE,4.6,-,N/A,,Clear,120,2013-03-11 02:20:00
4:50 AM,53.6,44.6,72,30.01,-9999.0,Variable,3.5,-,N/A,,Clear,0,2013-03-11 02:50:00
5:20 AM,51.8,42.8,71,30.01,-9999.0,Variable,3.5,-,N/A,,Clear,0,2013-03-11 03:20:00
5:50 AM,51.8,44.6,76,30.01,-9999.0,Variable,2.3,-,N/A,,Clear,0,2013-03-11 03:50:00
6:20 AM,53.6,44.6,72,30.01,-9999.0,Variable,2.3,-,N/A,,Clear,0,2013-03-11 04:20:00
6:50 AM,57.2,46.4,67,30.01,5.6,SE,5.8,-,N/A,,Unknown,130,2013-03-11 04:50:00
7:20 AM,59.0,46.4,63,30.04,-9999.0,Variable,2.3,-,N/A,,Clear,0,2013-03-11 05:20:00
7:50 AM,60.8,46.4,59,30.04,-9999.0,Variable,2.3,-,N/A,,Clear,0,2013-03-11 05:50:00
8:00 AM,62,47,47,30.04,6,,2.3,,,,,,2013-03-11 06:00:00
8:20 AM,64.4,48.2,56,30.04,-9999.0,Variable,2.3,-,N/A,,Clear,0,2013-03-11 06:20:00
8:50 AM,68.0,46.4,46,30.04,-9999.0,South,4.6,-,N/A,,Clear,190,2013-03-11 06:50:00
9:20 AM,69.8,46.4,43,30.04,-9999.0,South,6.9,-,N/A,,Clear,190,2013-03-11 07:20:00
9:50 AM,71.6,46.4,41,30.04,-9999.0,South,8.1,-,N/A,,Clear,190,2013-03-11 07:50:00
10:20 AM,73.4,44.6,36,30.04,-9999.0,SSW,5.8,-,N/A,,Clear,200,2013-03-11 08:20:00
10:50 AM,73.4,44.6,36,30.01,-9999.0,South,5.8,-,N/A,,Clear,180,2013-03-11 08:50:00
11:20 AM,75.2,42.8,31,30.01,6.2,SSW,5.8,-,N/A,,Partly Cloudy,200,2013-03-11 09:20:00
11:50 AM,77.0,42.8,29,29.98,-9999.0,South,6.9,-,N/A,,Clear,190,2013-03-11 09:50:00
12:20 PM,78.8,41.0,26,29.98,-9999.0,SW,5.8,-,N/A,,Clear,220,2013-03-11 10:20:00
12:50 PM,78.8,46.4,32,29.98,-9999.0,West,8.1,-,N/A,,Clear,280,2013-03-11 10:50:00
1:20 PM,78.8,46.4,32,29.98,-9999.0,WNW,9.2,-,N/A,,Clear,290,2013-03-11 11:20:00
1:50 PM,78.8,46.4,32,29.98,-9999.0,West,6.9,-,N/A,,Clear,260,2013-03-11 11:50:00
2:00 PM,78,46,22,29.97,6,West,6.9,,,,,260,2013-03-11 12:00:00
2:20 PM,78.8,46.4,32,29.95,-9999.0,West,4.6,-,N/A,,Clear,260,2013-03-11 12:20:00
2:50 PM,80.6,44.6,28,29.95,-9999.0,Variable,3.5,-,N/A,,Clear,0,2013-03-11 12:50:00
3:20 PM,80.6,42.8,26,29.95,-9999.0,SSW,6.9,-,N/A,,Clear,200,2013-03-11 13:20:00
3:50 PM,82.4,42.8,25,29.95,-9999.0,SW,8.1,-,N/A,,Clear,220,2013-03-11 13:50:00
4:20 PM,80.6,44.6,28,29.95,-9999.0,SW,5.8,-,N/A,,Clear,230,2013-03-11 14:20:00
4:50 PM,80.6,44.6,28,29.95,-9999.0,WSW,6.9,-,N/A,,Clear,240,2013-03-11 14:50:00
5:20 PM,78.8,42.8,28,29.95,-9999.0,SW,5.8,-,N/A,,Clear,230,2013-03-11 15:20:00
5:50 PM,77.0,42.8,29,29.98,-9999.0,Variable,2.3,-,N/A,,Clear,0,2013-03-11 15:50:00
6:20 PM,75.2,42.8,31,29.98,-9999.0,Variable,3.5,-,N/A,,Clear,0,2013-03-11 16:20:00
6:50 PM,77.0,42.8,29,29.98,-9999.0,Variable,3.5,-,N/A,,Clear,0,2013-03-11 16:50:00
7:20 PM,71.6,46.4,41,29.98,-9999.0,Variable,3.5,-,N/A,,Clear,0,2013-03-11 17:20:00
7:50 PM,71.6,46.4,41,29.98,-9999.0,ESE,4.6,-,N/A,,Clear,120,2013-03-11 17:50:00
8:00 PM,71,46,30,29.99,6,SE,4.6,,,,,130,2013-03-11 18:00:00
8:20 PM,69.8,48.2,46,29.98,-9999.0,SE,6.9,-,N/A,,Clear,140,2013-03-11 18:20:00
8:50 PM,69.8,48.2,46,29.98,-9999.0,SE,8.1,-,N/A,,Clear,140,2013-03-11 18:50:00
9:20 PM,69.8,46.4,43,29.98,-9999.0,SE,8.1,-,N/A,,Clear,140,2013-03-11 19:20:00
9:50 PM,69.8,44.6,40,29.98,-9999.0,SE,8.1,-,N/A,,Clear,130,2013-03-11 19:50:00
10:20 PM,69.8,42.8,38,29.98,-9999.0,SE,5.8,-,N/A,,Clear,130,2013-03-11 20:20:00
10:50 PM,69.8,42.8,38,29.98,-9999.0,SE,4.6,-,N/A,,Clear,130,2013-03-11 20:50:00
11:20 PM,69.8,42.8,38,29.98,-9999.0,ESE,4.6,-,N/A,,Clear,120,2013-03-11 21:20:00
11:50 PM,66.2,42.8,43,29.98,-9999.0,Variable,2.3,-,N/A,,Clear,0,2013-03-11 21:50:00